Home > Weather > Arequipa > Past weeks

Flag for Peru Past Weather in Arequipa, Arequipa, Peru — Yesterday and Last 2 Weeks

Now
59 °F

Sunny.


Feels Like: 60 °F
Forecast: 43 / 70 °F
Wind: 3 mph from Northeast

Location: Arequipa Airport

Current Time: Jun 26, 2016 at 9:01:35 AM

Latest Report: Jun 26, 2016 at 8:00 AM


Visibility: 10 mi

Pressure: 30.30 "Hg (22.94 "Hg at 2345m altitude)

Humidity: 12%

Dew Point: 7 °F

Location of ArequipaLocation

Past Weather in Arequipa — Graph

°F

Arequipa Temperature Yesterday

Maximum temperature yesterday: 66 °F (at 12:00 PM)
Minimum temperature yesterday: 48 °F (at 3:00 AM)
Average temperature yesterday: 55 °F

High & Low Weather Summary for the Past Weeks

 TemperatureHumidityPressure
High73 °F (Jun 16, 1:00 PM)64% (Jun 11, 4:00 PM)30.45 "Hg (Jun 11, 4:00 PM)
Low43 °F (Jun 18, 6:00 AM)5% (Jun 23, 11:00 AM)30.18 "Hg (Jun 25, 1:00 PM)
Average57 °F24%30.34 "Hg
* Reported Jun 11 8:00 AM — Jun 26 8:00 AM, Arequipa, Weather by CustomWeather, © 2016

Note: Actual official high and low records may vary slightly from our data, if they occured in-between our weather recording intervals... More about our weather records

Advertising

Arequipa Weather History for the Previous 24 Hours

Scroll right to see more
 ConditionsComfort  
Time TempWeatherWind HumidityBarometerVisibility
8:00 AM
Sun, Jun 26
59 °FSunny.3 mph12%30.30 "Hg10 mi
7:00 AM46 °FSunny.6 mph21%30.27 "Hg10 mi
6:00 AM45 °FClear.8 mph21%30.27 "Hg10 mi
5:00 AM46 °FClear.9 mph18%30.24 "Hg10 mi
4:00 AM46 °FClear.7 mph18%30.27 "Hg10 mi
3:00 AM48 °FClear.8 mph17%30.27 "Hg10 mi
2:00 AM46 °FClear.7 mph18%30.27 "Hg10 mi
1:00 AM46 °FClear.7 mph18%30.27 "Hg10 mi
12:00 AM50 °FPassing clouds.9 mph16%30.27 "HgN/A
11:00 PM
Sat, Jun 25
52 °FClear.12 mph13%30.27 "Hg10 mi
10:00 PM52 °FClear.13 mph13%30.30 "Hg10 mi
9:00 PM50 °FClear.10 mph20%30.30 "Hg10 mi
8:00 PM52 °FClear.9 mph24%30.27 "Hg10 mi
7:00 PM54 °FClear.7 mph24%30.27 "Hg10 mi
6:00 PM55 °FClear.2 mph19%30.27 "Hg10 mi
5:00 PM59 °FPassing clouds.6 mph23%30.24 "HgN/A
4:00 PM61 °FPassing clouds.7 mph22%30.21 "HgN/A
3:00 PM61 °FPassing clouds.9 mph23%30.21 "HgN/A
2:00 PM61 °FSunny.10 mph29%30.18 "Hg10 mi
1:00 PM64 °FPassing clouds.8 mph26%30.18 "HgN/A
12:00 PM66 °FSunny.6 mph14%30.21 "Hg10 mi
11:00 AM64 °FSunny.5 mph15%30.24 "Hg10 mi
10:00 AM61 °FSunny.2 mph16%30.24 "Hg10 mi
9:00 AM57 °FPassing clouds.6 mph20%30.27 "HgN/A
Weather by CustomWeather, © 2016

See weather overviewHow to use our weather pages